Regional Weather Roundup
Issued by NWS Upton, NY

Home | Current Version | Previous Version | Text Only | Print | Product List | Glossary On
Versions: 1 2 3 4 5 6 7 8 9 10 11 12 13 14 15 16 17 18 19 20 21 22 23 24 25 26 27 28 29 30 31 32 33 34 35 36
000
ASUS41 KOKX 231705
RWROKX
REGIONAL WEATHER ROUNDUP
NATIONAL WEATHER SERVICE NEW YORK NY
100 PM EDT THU OCT 23 2014

NOTE: "FAIR" INDICATES FEW OR NO CLOUDS BELOW 12,000 FEET WITH NO
SIGNIFICANT WEATHER AND/OR OBSTRUCTIONS TO VISIBILITY.

NYZ071-072-176-178-NJZ106-104-231800-
NEW YORK CITY METRO AREA


CITY           SKY/WX    TMP DP  RH WIND       PRES   REMARKS
CENTRAL PARK   LGT RAIN  51  48  89 VRB5      29.74F FOG
LAGUARDIA APRT LGT RAIN  51  47  86 N18G28    29.70F
KENNEDY INTL   LGT RAIN  52  46  80 N26G33    29.69F
NEWARK/LIBERTY LGT RAIN  54  50  87 N12G20    29.72F
BRNX BOT. GARD   N/A     50  46  87 NW20      29.72F
TETERBORO      LGT RAIN  52  47  83 N7        29.71F
$$

NYZ177-179-078>081-231800-
LONG ISLAND NEW YORK

CITY           SKY/WX    TMP DP  RH WIND       PRES   REMARKS
FARMINGDALE    CLOUDY    52  46  80 N14G26    29.66F
ISLIP          LGT RAIN  53  49  86 N15       29.62F
SHIRLEY        CLOUDY    54  48  80 N14G26    29.63F
WESTHAMPTON    CLOUDY    55  50  83 N14       29.62F
MONTAUK POINT    N/A     58  51  78 N15G23    29.57F
$$

NYZ052-065-067-231800-
HUDSON VALLEY

CITY           SKY/WX    TMP DP  RH WIND       PRES   REMARKS
WHITE PLAINS   CLOUDY    49  44  83 N21G29    29.69F
NEWBURGH       NOT AVBL
MONTGOMERY     LGT RAIN  51  48  89 NE7       29.74F
POUGHKEEPSIE   LGT RAIN  49  45  86 N12G26    29.76S FOG
ALBANY         LGT RAIN  47  44  90 N8        29.82F FOG
$$

NJZ001-105-106-008-010-013-015-019>022-104-231800-
NEW JERSEY

CITY           SKY/WX    TMP DP  RH WIND       PRES   REMARKS
NEWARK/LIBERTY LGT RAIN  54  50  87 N12G20    29.72F
TETERBORO      LGT RAIN  52  47  83 N7        29.71F
CALDWELL       LGT RAIN  52  48  86 NE5       29.73F
MORRISTOWN     CLOUDY    54  50  87 N5        29.74
SOMERVILLE     LGT RAIN  53  46  77 NW7       29.73F
SUSSEX         LGT RAIN  55  46  71 N9        29.75F
ANDOVER          N/A     51  45  79 VRB7G17   29.75F
TRENTON        LGT RAIN  52  47  83 NW9       29.74F
MILLVILLE      LGT RAIN  52  49  89 NW13      29.77F
ATLANTIC CITY  CLOUDY    52  47  83 NW16G25   29.74S
WRIGHTSTOWN    LGT RAIN  52  49  89 NW15      29.72S
TOMS RIVER     CLOUDY    52  48  87 NW8       29.72S
BELMAR         CLOUDY    52  45  76 NW14G22   29.70S
$$

PAZ047>061-062-071-231800-
EASTERN PENNSYLVANIA

CITY           SKY/WX    TMP DP  RH WIND       PRES   REMARKS
PHILADELPHIA   CLOUDY    55  46  71 NW16      29.78F
ALLENTOWN      CLOUDY    53  42  66 NW18G28   29.80S
SCRANTON       CLOUDY    46  42  86 N12G20    29.85F
$$

CTZ002-004>006-009-010-012-RIZ004-006-007-MAZ004-011-015-231800-
SOUTHERN NEW ENGLAND
 IN CT

CITY           SKY/WX    TMP DP  RH WIND       PRES   REMARKS
BRADLEY INTL   LGT RAIN  54  47  77 N22G28    29.66F
HARTFORD       CLOUDY    53  47  79 N12       29.66F
DANBURY        CLOUDY    48  42  80 NW16G23   29.72S
WTRBRY/OXFORD  CLOUDY    48  43  81 N12G21    29.68  FOG
BRIDGEPORT     CLOUDY    53  47  79 NW10      29.65F
MERIDEN        CLOUDY    53  46  77 N13G23    29.65F
NEW HAVEN      CLOUDY    55  47  74 N20G31    29.63F
CHESTER        DRIZZLE   52  48  87 N12       29.63S
GROTON           N/A     56  49  77 MISG      29.57F
WILLIMANTIC    CLOUDY    56  47  71 N13       29.63S

 IN RI

CITY           SKY/WX    TMP DP  RH WIND       PRES   REMARKS
PROVIDENCE     LGT RAIN  55  51  86 N16       29.59F
BLOCK ISLAND   PTSUNNY   57  50  77 N16G24    29.55F
WESTERLY       CLOUDY    57  50  77 N15G26    29.57F

 IN MA

CITY           SKY/WX    TMP DP  RH WIND       PRES   REMARKS
BOSTON         CLOUDY    53  51  93 N28G38    29.60F
WORCESTER      LGT RAIN  48  47  96 N17G26    29.64F VSB 3/4
WESTFIELD      CLOUDY    53  47  79 N24G31    29.67F
PROVINCETOWN   PTSUNNY   63   7  11 NE12      29.55S
NANTUCKET      MOSUNNY   60  57  89 N13       29.48F
$$

ANZ330-335-338-340-345-350-353-355-231800-
COASTAL MARINE OBSERVATIONS


STATION/POSITION TIME  SKY/WX   TEMP    WIND        PRES    VSBY  WAVE
                                AIR SEA DIR/SP/G                  HT/PER
                 (UTC)          (F)     (DEG/KT/KT) (MB)    (MI)  (FT/S)
NY HARB ENTRANCE NOT AVBL
4S FIRE IS       1700               63                N/A           5/10
20S FIRE ISLAND  1700            56 64  350/ 21/ 27 1002.5          7/ 5
23SW MTP         1700                                 N/A           6/ 6
HUDSON CANYON    1700            58 67  340/ 21/ 27 1001.1         10/ 7
EXECUTION ROCKS  1600            52 62  330/ 17/ 23   N/A
WESTERN LI SOUND 1600            52     340/ 17/ 23   N/A           2/ 6
CENTRAL LI SOUND 1600            55 63  350/ 21/ 25   N/A           3/ 4
EASTERN LI SOUND 1600            58 63   20/ 17/ 27   N/A
ROBBINS REEF     1700            51     340/ 16/ 23 1004.8
$$


>>>>>>>>>>>>>>>>>>>>>>>>>>>> KEY <<<<<<<<<<<<<<<<<<<<<<<<<<<
>                                                          <
>     SKY/WX - SKY CONDITION/PRESENT WEATHER               <
>     TMP    - TEMPERATURE IN FAHRENHEIT                   <
>     DP     - DEWPOINT IN FAHRENHEIT                      <
>     RH     - RELATIVE HUMIDITY IN PERCENT                <
>     WIND   - DIRECTION AND SPEED IN MPH                  <
>     PRES   - MEAN SEA LEVEL PRESSURE IN INCHES OF HG     <
>     WCI    - WIND CHILL INDEX                            <
>     VSB    - VISIBILITY IN MILES                         <
>     HX     - HEAT INDEX                                  <
>     TC     - TEMPERATURE IN CELSIUS                      <
>     VRB    - VARIABLE WIND DIRECTION                     <
>                                                          <
>>>>>>>>>>>>>>>>>>>>>>>>>>>> KEY <<<<<<<<<<<<<<<<<<<<<<<<<<<





USA.gov is the U.S. government's official web portal to all federal, state and local government web resources and services.